Weather History for Sulphur Springs, TX

Change the Weather History Date:

Tuesday, October 9, 2012

  Actual Average (KGVT) Record (KGVT)
Temperature  
Mean Temperature 60 °F -  
Max Temperature 73 °F 76 °F 87 °F (2014)
Min Temperature 48 °F 58 °F 42 °F (2005)
Degree Days  
Heating Degree Days 4    
Growing Degree Days 10 (Base 50)    
Moisture  
Dew Point 52 °F    
Average Humidity 74    
Maximum Humidity 94    
Minimum Humidity 60    
Precipitation  
Precipitation 0.00 in - - ()
Sea Level Pressure  
Sea Level Pressure 30.03 in    
Wind  
Wind Speed 8 mph (SSE)    
Max Wind Speed 18 mph    
Max Gust Speed 22 mph    
Visibility 10 miles    
Events      
Averages and records for this station are not official NWS values.
T = Trace of Precipitation, MM = Missing Value Source: NWS Daily Summary

Daily Weather History Graph

Daily Weather History Graph

Search for Another Location

Airport:

Trip Planner

Search our weather history database for the weather conditions in past years. The results will help you decide how hot, cold, wet, or windy it might be!

Date:

Astronomy

Oct. 09, 2012 Rise Set
Actual Time 7:22 AM CDT 6:55 PM CDT
Civil Twilight 6:57 AM CDT 7:20 PM CDT
Nautical Twilight 6:29 AM CDT 7:49 PM CDT
Astronomical Twilight 6:00 AM CDT 8:17 PM CDT
Moon 1:18 AM CDT (10/9) 3:07 PM CDT (10/9)
Length of Visible Light 12h 22m
Length of Day
11h 33m
Last Quarter, 36% of the Moon is Illuminated
Oct 9
Last Quarter
Oct 15
New
Oct 21
First Quarter
Oct 29
Full
Nov 6
Last Quarter

Hourly Weather History & Observations

Time (CDT) Temp. Dew Point Humidity Pressure Visibility Wind Dir Wind Speed Gust Speed Precip Events Conditions
12:15 AM 51.8 °F 42.8 °F 71% 30.12 in 10.0 mi SE 8.1 mph - N/A   Clear
12:35 AM 51.8 °F 42.8 °F 71% 30.12 in 10.0 mi SE 6.9 mph - N/A   Clear
12:55 AM 51.8 °F 42.8 °F 71% 30.12 in 10.0 mi SE 6.9 mph - N/A   Clear
1:15 AM 51.8 °F 42.8 °F 71% 30.12 in 10.0 mi SE 6.9 mph - N/A   Clear
1:35 AM 51.8 °F 42.8 °F 71% 30.11 in 10.0 mi SE 6.9 mph - N/A   Clear
1:55 AM 50.0 °F 42.8 °F 76% 30.11 in 10.0 mi SE 6.9 mph - N/A   Clear
2:15 AM 50.0 °F 42.8 °F 76% 30.11 in 10.0 mi SE 6.9 mph - N/A   Clear
2:35 AM 50.0 °F 42.8 °F 76% 30.11 in 10.0 mi SE 4.6 mph - N/A   Clear
2:55 AM 50.0 °F 44.6 °F 82% 30.11 in 10.0 mi SE 4.6 mph - N/A   Clear
3:15 AM 50.0 °F 44.6 °F 82% 30.11 in 10.0 mi SE 4.6 mph - N/A   Clear
3:35 AM 50.0 °F 44.6 °F 82% 30.10 in 10.0 mi SE 5.8 mph - N/A   Clear
3:55 AM 48.2 °F 44.6 °F 87% 30.09 in 10.0 mi SE 4.6 mph - N/A   Clear
4:15 AM 48.2 °F 44.6 °F 87% 30.09 in 10.0 mi SE 5.8 mph - N/A   Clear
4:35 AM 48.2 °F 44.6 °F 87% 30.08 in 10.0 mi SE 5.8 mph - N/A   Clear
4:55 AM 48.2 °F 44.6 °F 87% 30.08 in 10.0 mi SE 5.8 mph - N/A   Clear
5:15 AM 48.2 °F 44.6 °F 87% 30.09 in 10.0 mi SE 4.6 mph - N/A   Scattered Clouds
5:35 AM 50.0 °F 44.6 °F 82% 30.09 in 10.0 mi SE 6.9 mph - N/A   Mostly Cloudy
5:55 AM 50.0 °F 44.6 °F 82% 30.09 in 10.0 mi SSE 8.1 mph - N/A   Overcast
6:15 AM 51.8 °F 44.6 °F 76% 30.09 in 10.0 mi SSE 9.2 mph - N/A   Overcast
6:35 AM 51.8 °F 46.4 °F 82% 30.09 in 10.0 mi SSE 8.1 mph - N/A   Overcast
6:55 AM 51.8 °F 46.4 °F 82% 30.09 in 10.0 mi SSE 8.1 mph - N/A   Overcast
7:15 AM 51.8 °F 46.4 °F 82% 30.09 in 10.0 mi SSE 6.9 mph - N/A   Overcast
7:35 AM 51.8 °F 46.4 °F 82% 30.09 in 10.0 mi South 9.2 mph - N/A   Overcast
7:55 AM 53.6 °F 46.4 °F 77% 30.09 in 10.0 mi SSE 8.1 mph - N/A   Overcast
8:15 AM 53.6 °F 46.4 °F 77% 30.10 in 10.0 mi SSE 6.9 mph - N/A   Overcast
8:35 AM 53.6 °F 46.4 °F 77% 30.10 in 10.0 mi SSE 5.8 mph - N/A   Overcast
8:55 AM 53.6 °F 46.4 °F 77% 30.10 in 10.0 mi SSE 4.6 mph - N/A   Overcast
9:15 AM 55.4 °F 46.4 °F 72% 30.09 in 10.0 mi SE 9.2 mph - N/A   Overcast
9:35 AM 55.4 °F 46.4 °F 72% 30.10 in 10.0 mi SSE 5.8 mph - N/A   Overcast
9:55 AM 55.4 °F 48.2 °F 77% 30.10 in 10.0 mi SSE 6.9 mph - N/A   Overcast
10:15 AM 59.0 °F 48.2 °F 67% 30.10 in 10.0 mi SSE 9.2 mph - N/A   Overcast
10:35 AM 59.0 °F 50.0 °F 72% 30.09 in 10.0 mi South 10.4 mph - N/A   Overcast
10:55 AM 60.8 °F 50.0 °F 68% 30.08 in 10.0 mi South 10.4 mph 16.1 mph N/A   Overcast
11:15 AM 62.6 °F 50.0 °F 63% 30.07 in 10.0 mi South 9.2 mph - N/A   Overcast
11:35 AM 62.6 °F 51.8 °F 68% 30.07 in 10.0 mi South 11.5 mph 17.3 mph N/A   Overcast
11:55 AM 64.4 °F 51.8 °F 64% 30.06 in 10.0 mi SSW 13.8 mph 19.6 mph N/A   Overcast
12:15 PM 68.0 °F 53.6 °F 60% 30.04 in 10.0 mi South 13.8 mph 21.9 mph N/A   Overcast
12:35 PM 68.0 °F 53.6 °F 60% 30.03 in 10.0 mi South 16.1 mph 20.7 mph N/A   Mostly Cloudy
12:55 PM 68.0 °F 53.6 °F 60% 30.02 in 10.0 mi South 16.1 mph 20.7 mph N/A   Mostly Cloudy
1:15 PM 68.0 °F 53.6 °F 60% 30.01 in 10.0 mi South 18.4 mph 21.9 mph N/A   Mostly Cloudy
1:35 PM 69.8 °F 55.4 °F 60% 29.99 in 10.0 mi South 15.0 mph 20.7 mph N/A   Mostly Cloudy
1:55 PM 69.8 °F 55.4 °F 60% 29.98 in 10.0 mi South 15.0 mph - N/A   Overcast
2:15 PM 69.8 °F 55.4 °F 60% 29.97 in 10.0 mi South 11.5 mph 20.7 mph N/A   Mostly Cloudy
2:35 PM 69.8 °F 57.2 °F 64% 29.96 in 10.0 mi South 11.5 mph 18.4 mph N/A   Mostly Cloudy
2:55 PM 69.8 °F 57.2 °F 64% 29.95 in 10.0 mi SSW 11.5 mph 19.6 mph N/A   Overcast
3:15 PM 69.8 °F 59.0 °F 68% 29.95 in 10.0 mi SSW 12.7 mph - N/A   Overcast
3:35 PM 69.8 °F 59.0 °F 68% 29.95 in 10.0 mi South 10.4 mph - N/A   Overcast
3:55 PM 71.6 °F 59.0 °F 64% 29.94 in 10.0 mi South 11.5 mph - N/A   Overcast
4:15 PM 71.6 °F 59.0 °F 64% 29.94 in 10.0 mi SSW 16.1 mph 20.7 mph N/A   Overcast
4:35 PM 73.4 °F 59.0 °F 61% 29.93 in 10.0 mi SSW 15.0 mph 20.7 mph N/A   Overcast
4:55 PM 71.6 °F 59.0 °F 64% 29.93 in 10.0 mi South 6.9 mph 11.5 mph N/A   Overcast
5:15 PM 71.6 °F 59.0 °F 64% 29.93 in 10.0 mi South 10.4 mph - N/A   Overcast
5:35 PM 71.6 °F 59.0 °F 64% 29.93 in 10.0 mi SSW 9.2 mph - N/A   Overcast
5:55 PM 71.6 °F 59.0 °F 64% 29.93 in 10.0 mi South 6.9 mph - N/A   Overcast
6:15 PM 71.6 °F 59.0 °F 64% 29.93 in 10.0 mi South 6.9 mph - N/A   Overcast
6:35 PM 71.6 °F 59.0 °F 64% 29.93 in 10.0 mi South 5.8 mph - N/A   Overcast
6:55 PM 71.6 °F 60.8 °F 69% 29.92 in 10.0 mi SSE 8.1 mph - N/A   Mostly Cloudy
7:15 PM 69.8 °F 60.8 °F 73% 29.93 in 10.0 mi SSE 5.8 mph - N/A   Mostly Cloudy
7:35 PM 69.8 °F 60.8 °F 73% 29.94 in 10.0 mi ESE 3.5 mph - N/A   Overcast
7:55 PM 68.0 °F 60.8 °F 78% 29.95 in 10.0 mi East 3.5 mph - N/A   Overcast
8:15 PM 68.0 °F 60.8 °F 78% 29.96 in 10.0 mi East 4.6 mph - N/A   Overcast
8:35 PM 68.0 °F 60.8 °F 78% 29.97 in 10.0 mi ENE 4.6 mph - N/A   Overcast
8:55 PM 68.0 °F 60.8 °F 78% 29.98 in 10.0 mi East 4.6 mph - N/A   Overcast
9:15 PM 68.0 °F 60.8 °F 78% 29.99 in 10.0 mi East 4.6 mph - N/A   Overcast
9:35 PM 66.2 °F 60.8 °F 83% 29.99 in 10.0 mi East 5.8 mph - N/A   Scattered Clouds
9:55 PM 66.2 °F 60.8 °F 83% 30.00 in 10.0 mi ESE 5.8 mph - N/A   Scattered Clouds
10:15 PM 64.4 °F 60.8 °F 88% 30.01 in 10.0 mi East 5.8 mph - N/A   Clear
10:35 PM 64.4 °F 60.8 °F 88% 30.01 in 10.0 mi ESE 5.8 mph - N/A   Clear
10:55 PM 64.4 °F 60.8 °F 88% 30.01 in 10.0 mi East 5.8 mph - N/A   Clear
11:15 PM 64.4 °F 60.8 °F 88% 30.02 in 10.0 mi East 3.5 mph - N/A   Clear
11:35 PM 62.6 °F 60.8 °F 94% 30.02 in 10.0 mi East 3.5 mph - N/A   Scattered Clouds
11:55 PM 64.4 °F 60.8 °F 88% 30.02 in 10.0 mi East 5.8 mph - N/A   Scattered Clouds